EXS5FR LEGE-EGNT

Flight info

Callsign EXS5FR
Flight time 2h 12m
Altitude 38000
Route GEANT DCT ROCAN DCT TOU DCT TUPAR UN861 ANG DCT AKIKI UN867 AVANT UM184 HEMEL Q3 MOGLI L613 MAMUL UY250 RIMTO
Aircraft B738/M-SDE2E3FGHIRWXY/LB1

Departure

Time 2026-05-04 17:47
Airport Girona-Costa Brava Airport (LEGE)

Arrival

Time 2026-05-04 20:00
Airport Newcastle International Airport (EGNT)
Time Latitude Longitude Altitude Speed Heading
2026-05-04 17:36 41.89853 2.76479 416 ft 0 kts 106°
2026-05-04 17:39 41.89854 2.76473 419 ft 4 kts 105°
2026-05-04 17:40 41.89859 2.76438 415 ft 4 kts 89°
2026-05-04 17:40 41.89854 2.76409 412 ft 4 kts 34°
2026-05-04 17:40 41.89847 2.76405 413 ft 1 kts 329°
2026-05-04 17:42 41.89850 2.76403 412 ft 1 kts 330°
2026-05-04 17:42 41.89864 2.76392 414 ft 5 kts 329°
2026-05-04 17:43 41.89892 2.76333 416 ft 10 kts 286°
2026-05-04 17:43 41.89921 2.76237 422 ft 9 kts 322°
2026-05-04 17:43 41.89980 2.76243 429 ft 10 kts 16°
2026-05-04 17:43 41.90061 2.76274 428 ft 14 kts 15°
2026-05-04 17:44 41.90166 2.76314 424 ft 18 kts 15°
2026-05-04 17:44 41.90296 2.76363 431 ft 21 kts 15°
2026-05-04 17:44 41.90446 2.76419 435 ft 24 kts 15°
2026-05-04 17:44 41.90614 2.76484 440 ft 26 kts 16°
2026-05-04 17:45 41.90787 2.76549 454 ft 25 kts 16°
2026-05-04 17:45 41.90952 2.76612 461 ft 25 kts 15°
2026-05-04 17:45 41.91135 2.76682 463 ft 26 kts 15°
2026-05-04 17:45 41.91298 2.76742 465 ft 24 kts 15°
2026-05-04 17:46 41.91430 2.76750 469 ft 15 kts 328°
2026-05-04 17:46 41.91518 2.76674 472 ft 15 kts 319°
2026-05-04 17:46 41.91506 2.76592 476 ft 9 kts 205°
2026-05-04 17:46 41.91471 2.76578 471 ft 17 kts 197°
2026-05-04 17:47 41.91107 2.76439 470 ft 91 kts 195°
2026-05-04 17:47 41.90285 2.76127 460 ft 152 kts 196°
2026-05-04 17:47 41.89205 2.75679 977 ft 169 kts 196°
2026-05-04 17:47 41.88094 2.75205 1417 ft 170 kts 195°
2026-05-04 17:48 41.86939 2.74825 1720 ft 168 kts 194°
2026-05-04 17:48 41.85939 2.74100 2202 ft 174 kts 233°
2026-05-04 17:48 41.85595 2.72434 2618 ft 206 kts 271°
2026-05-04 17:48 41.86105 2.70499 2855 ft 240 kts 302°
2026-05-04 17:49 41.87432 2.68942 3286 ft 265 kts 327°
2026-05-04 17:49 41.89062 2.67728 4196 ft 269 kts 328°
2026-05-04 17:49 41.90707 2.66525 5141 ft 272 kts 328°
2026-05-04 17:49 41.92351 2.65223 5975 ft 276 kts 325°
2026-05-04 17:50 41.93983 2.63839 6812 ft 279 kts 324°
2026-05-04 17:50 41.95605 2.62440 7581 ft 283 kts 324°
2026-05-04 17:50 41.97272 2.61004 8344 ft 287 kts 323°
2026-05-04 17:50 41.98972 2.59546 9073 ft 292 kts 323°
2026-05-04 17:51 42.00700 2.58074 9793 ft 296 kts 323°
2026-05-04 17:51 42.02456 2.56567 10321 ft 308 kts 324°
2026-05-04 17:51 42.04337 2.54952 10514 ft 332 kts 324°
2026-05-04 17:51 42.06331 2.53250 10977 ft 345 kts 324°
2026-05-04 17:52 42.08377 2.51509 11690 ft 350 kts 324°
2026-05-04 17:52 42.10439 2.49757 12513 ft 351 kts 324°
2026-05-04 17:52 42.12521 2.47986 13284 ft 356 kts 324°
2026-05-04 17:52 42.14601 2.46213 13963 ft 361 kts 324°
2026-05-04 17:53 42.16734 2.44392 14617 ft 365 kts 324°
2026-05-04 17:53 42.18889 2.42552 15268 ft 369 kts 324°
2026-05-04 17:53 42.21072 2.40686 15877 ft 374 kts 324°
2026-05-04 17:53 42.23280 2.38797 16552 ft 377 kts 324°
2026-05-04 17:54 42.25502 2.36896 17262 ft 379 kts 324°
2026-05-04 17:54 42.27742 2.34976 17867 ft 384 kts 324°
2026-05-04 17:54 42.30009 2.33031 18420 ft 389 kts 324°
2026-05-04 17:54 42.32299 2.31066 18999 ft 391 kts 324°
2026-05-04 17:55 42.34573 2.29113 19562 ft 394 kts 323°
2026-05-04 17:55 42.36896 2.27116 20065 ft 398 kts 323°
2026-05-04 17:55 42.39241 2.25099 20682 ft 400 kts 323°
2026-05-04 17:55 42.41595 2.23072 21253 ft 403 kts 323°
2026-05-04 17:56 42.43955 2.20983 21767 ft 406 kts 320°
2026-05-04 17:56 42.46193 2.18647 22272 ft 407 kts 316°
2026-05-04 17:56 42.48363 2.16169 22843 ft 409 kts 315°
2026-05-04 17:56 42.50529 2.13644 23361 ft 413 kts 315°
2026-05-04 17:57 42.52698 2.11138 23791 ft 417 kts 315°
2026-05-04 17:57 42.54924 2.08604 24208 ft 420 kts 316°
2026-05-04 17:57 42.57180 2.06064 24609 ft 423 kts 316°
2026-05-04 17:57 42.59455 2.03515 25019 ft 426 kts 316°
2026-05-04 17:58 42.61752 2.00942 25406 ft 429 kts 316°
2026-05-04 17:58 42.64062 1.98348 25781 ft 433 kts 316°
2026-05-04 17:58 42.66396 1.95741 26166 ft 436 kts 317°
2026-05-04 17:58 42.68843 1.93276 26551 ft 442 kts 322°
2026-05-04 17:59 42.71471 1.91064 26921 ft 447 kts 328°
2026-05-04 17:59 42.74240 1.89212 27292 ft 452 kts 334°
2026-05-04 17:59 42.80153 1.86138 28071 ft 458 kts 337°
2026-05-04 18:00 42.83140 1.84606 28370 ft 461 kts 336°
2026-05-04 18:00 42.86130 1.82967 28631 ft 464 kts 334°
2026-05-04 18:00 42.89106 1.81223 28945 ft 467 kts 333°
2026-05-04 18:00 42.92069 1.79395 29279 ft 468 kts 332°
2026-05-04 18:01 42.95027 1.77516 29599 ft 470 kts 332°
2026-05-04 18:01 42.98002 1.75610 29857 ft 474 kts 332°
2026-05-04 18:01 43.00995 1.73695 30095 ft 478 kts 332°
2026-05-04 18:02 43.07009 1.69878 30604 ft 482 kts 332°
2026-05-04 18:02 43.10057 1.67957 30889 ft 483 kts 332°
2026-05-04 18:02 43.13117 1.66030 31187 ft 484 kts 332°
2026-05-04 18:02 43.16178 1.64102 31512 ft 484 kts 332°
2026-05-04 18:03 43.19238 1.62173 31881 ft 483 kts 332°
2026-05-04 18:03 43.22283 1.60249 32232 ft 482 kts 331°
2026-05-04 18:03 43.25290 1.58346 32502 ft 483 kts 331°
2026-05-04 18:03 43.28347 1.56407 32731 ft 485 kts 331°
2026-05-04 18:04 43.31405 1.54465 32992 ft 485 kts 331°
2026-05-04 18:04 43.34469 1.52518 33325 ft 484 kts 331°
2026-05-04 18:04 43.40568 1.48638 33968 ft 482 kts 330°
2026-05-04 18:05 43.43614 1.46696 34194 ft 483 kts 330°
2026-05-04 18:05 43.46667 1.44746 34439 ft 483 kts 330°
2026-05-04 18:05 43.49669 1.42828 34789 ft 480 kts 330°
2026-05-04 18:05 43.52677 1.40906 35212 ft 474 kts 330°
2026-05-04 18:06 43.58629 1.37092 35785 ft 471 kts 330°
2026-05-04 18:06 43.61607 1.35177 35928 ft 473 kts 330°
2026-05-04 18:06 43.64589 1.33259 36158 ft 473 kts 330°
2026-05-04 18:07 43.67565 1.31347 36463 ft 470 kts 330°
2026-05-04 18:07 43.70506 1.29429 36839 ft 465 kts 329°
2026-05-04 18:07 43.73401 1.27481 37145 ft 462 kts 329°
2026-05-04 18:07 43.76280 1.25508 37340 ft 462 kts 328°
2026-05-04 18:08 43.79119 1.23545 37467 ft 463 kts 328°
2026-05-04 18:08 43.82002 1.21551 37604 ft 464 kts 328°
2026-05-04 18:08 43.84888 1.19558 37798 ft 463 kts 329°
2026-05-04 18:08 43.87763 1.17580 38023 ft 461 kts 329°
2026-05-04 18:09 43.99306 1.09646 37933 ft 462 kts 329°
2026-05-04 18:10 44.05026 1.05706 37923 ft 462 kts 329°
2026-05-04 18:10 44.10771 1.01739 37927 ft 462 kts 329°
2026-05-04 18:11 44.16515 0.97762 37950 ft 462 kts 329°
2026-05-04 18:11 44.22269 0.93771 37972 ft 462 kts 329°
2026-05-04 18:12 44.27986 0.89796 37969 ft 462 kts 329°
2026-05-04 18:12 44.33751 0.85779 37957 ft 463 kts 329°
2026-05-04 18:13 44.39525 0.81746 37926 ft 465 kts 329°
2026-05-04 18:14 44.48207 0.75667 37939 ft 466 kts 329°
2026-05-04 18:14 44.53963 0.71626 37908 ft 467 kts 329°
2026-05-04 18:15 44.65560 0.63456 37954 ft 467 kts 329°
2026-05-04 18:16 44.71358 0.59357 37967 ft 466 kts 329°
2026-05-04 18:16 44.77125 0.55271 37968 ft 466 kts 329°
2026-05-04 18:17 44.85816 0.49096 37932 ft 467 kts 329°
2026-05-04 18:18 44.94509 0.42898 37931 ft 467 kts 329°
2026-05-04 18:18 45.00301 0.38756 37923 ft 467 kts 329°
2026-05-04 18:19 45.08948 0.32556 37935 ft 467 kts 329°
2026-05-04 18:19 45.14735 0.28395 37951 ft 466 kts 329°
2026-05-04 18:20 45.20518 0.24227 37936 ft 467 kts 329°
2026-05-04 18:20 45.26304 0.20047 37945 ft 466 kts 329°
2026-05-04 18:21 45.32042 0.15892 37939 ft 466 kts 329°
2026-05-04 18:21 45.37819 0.11700 37942 ft 466 kts 329°
2026-05-04 18:22 45.43588 0.07505 37945 ft 466 kts 329°
2026-05-04 18:22 45.49359 0.03297 37931 ft 466 kts 329°
2026-05-04 18:23 45.55082 -0.00885 37961 ft 465 kts 329°
2026-05-04 18:23 45.60840 -0.05103 37958 ft 465 kts 329°
2026-05-04 18:24 45.66596 -0.09328 37937 ft 465 kts 329°
2026-05-04 18:24 45.72343 -0.13557 37927 ft 465 kts 329°
2026-05-04 18:25 45.78051 -0.17768 37962 ft 464 kts 329°
2026-05-04 18:25 45.83790 -0.22010 37961 ft 464 kts 329°
2026-05-04 18:26 45.89526 -0.26260 37934 ft 464 kts 329°
2026-05-04 18:26 45.95256 -0.30517 37934 ft 464 kts 329°
2026-05-04 18:27 46.00983 -0.34780 37956 ft 463 kts 329°
2026-05-04 18:27 46.06661 -0.39018 37943 ft 463 kts 329°
2026-05-04 18:28 46.12388 -0.43301 37944 ft 464 kts 329°
2026-05-04 18:28 46.18112 -0.47593 37953 ft 464 kts 329°
2026-05-04 18:29 46.23838 -0.51897 37933 ft 464 kts 329°
2026-05-04 18:29 46.29527 -0.56183 37951 ft 464 kts 329°
2026-05-04 18:30 46.38127 -0.62681 37948 ft 466 kts 329°
2026-05-04 18:31 46.43997 -0.66727 37922 ft 469 kts 337°
2026-05-04 18:31 46.47163 -0.67912 37870 ft 473 kts 352°
2026-05-04 18:31 46.50422 -0.68314 38148 ft 468 kts 354°
2026-05-04 18:31 46.53689 -0.68633 37964 ft 474 kts 354°
2026-05-04 18:32 46.56922 -0.69106 37997 ft 473 kts 350°
2026-05-04 18:32 46.63420 -0.70733 37975 ft 473 kts 347°
2026-05-04 18:33 46.69898 -0.72493 37948 ft 474 kts 348°
2026-05-04 18:33 46.76403 -0.74085 37933 ft 474 kts 349°
2026-05-04 18:34 46.82914 -0.75569 37939 ft 474 kts 349°
2026-05-04 18:34 46.89379 -0.77020 37961 ft 472 kts 349°
2026-05-04 18:35 46.95868 -0.78488 37967 ft 471 kts 349°
2026-05-04 18:35 47.02348 -0.79965 37937 ft 471 kts 349°
2026-05-04 18:36 47.08808 -0.81444 37934 ft 470 kts 349°
2026-05-04 18:36 47.15216 -0.82915 37956 ft 469 kts 349°
2026-05-04 18:37 47.21650 -0.84395 37961 ft 467 kts 349°
2026-05-04 18:37 47.28082 -0.85877 37936 ft 467 kts 349°
2026-05-04 18:38 47.34497 -0.87360 37920 ft 467 kts 349°
2026-05-04 18:38 47.40870 -0.88836 37949 ft 466 kts 349°
2026-05-04 18:39 47.47286 -0.90326 37945 ft 466 kts 349°
2026-05-04 18:39 47.53701 -0.91820 37910 ft 467 kts 349°
2026-05-04 18:40 47.60116 -0.93317 37944 ft 467 kts 349°
2026-05-04 18:40 47.65460 -0.94567 37948 ft 467 kts 349°
2026-05-04 18:41 47.72933 -0.96320 37935 ft 469 kts 349°
2026-05-04 18:41 47.79369 -0.97833 37913 ft 470 kts 349°
2026-05-04 18:42 47.84732 -0.99097 37988 ft 468 kts 349°
2026-05-04 18:42 47.91186 -1.00622 37930 ft 470 kts 349°
2026-05-04 18:43 47.97650 -1.02153 37901 ft 471 kts 349°
2026-05-04 18:43 48.04103 -1.03684 37939 ft 470 kts 350°
2026-05-04 18:44 48.10514 -1.05210 37970 ft 469 kts 349°
2026-05-04 18:44 48.16962 -1.06749 37974 ft 468 kts 349°
2026-05-04 18:45 48.23393 -1.08287 37965 ft 468 kts 350°
2026-05-04 18:45 48.29821 -1.09829 37966 ft 467 kts 349°
2026-05-04 18:46 48.36233 -1.11371 37959 ft 466 kts 349°
2026-05-04 18:46 48.42581 -1.12901 37963 ft 465 kts 349°
2026-05-04 18:47 48.48961 -1.14443 37972 ft 464 kts 350°
2026-05-04 18:47 48.55332 -1.15987 37965 ft 463 kts 350°
2026-05-04 18:48 48.61685 -1.17530 37977 ft 462 kts 350°
2026-05-04 18:48 48.67988 -1.19065 37963 ft 462 kts 350°
2026-05-04 18:49 48.74380 -1.20626 37988 ft 461 kts 350°
2026-05-04 18:49 48.80670 -1.22165 37968 ft 461 kts 350°
2026-05-04 18:50 48.87003 -1.23719 37978 ft 461 kts 350°
2026-05-04 18:50 48.93299 -1.25268 37985 ft 461 kts 350°
2026-05-04 18:51 48.99632 -1.26831 37989 ft 461 kts 350°
2026-05-04 18:51 49.05970 -1.28398 37976 ft 462 kts 350°
2026-05-04 18:52 49.12306 -1.29969 37996 ft 461 kts 350°
2026-05-04 18:52 49.18639 -1.31543 37978 ft 462 kts 350°
2026-05-04 18:53 49.24938 -1.33113 37992 ft 461 kts 350°
2026-05-04 18:53 49.31273 -1.34696 37987 ft 461 kts 350°
2026-05-04 18:54 49.37609 -1.36284 37999 ft 461 kts 350°
2026-05-04 18:54 49.43938 -1.37873 37995 ft 461 kts 350°
2026-05-04 18:55 49.50265 -1.39467 37998 ft 460 kts 350°
2026-05-04 18:55 49.59713 -1.41763 37972 ft 460 kts 353°
2026-05-04 18:56 49.66095 -1.42052 38013 ft 459 kts
2026-05-04 18:56 49.72441 -1.40916 38034 ft 458 kts
2026-05-04 18:57 49.78787 -1.39884 37974 ft 458 kts
2026-05-04 18:57 49.85103 -1.39355 37956 ft 458 kts
2026-05-04 18:58 49.91459 -1.38935 38022 ft 457 kts
2026-05-04 18:58 49.97810 -1.38260 38026 ft 456 kts
2026-05-04 18:59 50.04136 -1.37316 37993 ft 456 kts
2026-05-04 18:59 50.10410 -1.35803 37965 ft 457 kts 11°
2026-05-04 19:00 50.16651 -1.33998 37961 ft 457 kts 10°
2026-05-04 19:00 50.22872 -1.32337 37973 ft 457 kts
2026-05-04 19:01 50.29086 -1.30790 37995 ft 457 kts
2026-05-04 19:01 50.35380 -1.29235 38000 ft 458 kts
2026-05-04 19:02 50.41684 -1.27662 38008 ft 459 kts
2026-05-04 19:02 50.47955 -1.26034 37981 ft 460 kts 12°
2026-05-04 19:03 50.51064 -1.24577 37890 ft 461 kts 27°
2026-05-04 19:03 50.53752 -1.22042 38082 ft 454 kts 36°
2026-05-04 19:03 50.58914 -1.16237 38010 ft 457 kts 34°
2026-05-04 19:04 50.64385 -1.11094 38004 ft 458 kts 30°
2026-05-04 19:04 50.69881 -1.06010 37999 ft 458 kts 32°
2026-05-04 19:05 50.75259 -1.00624 37988 ft 458 kts 33°
2026-05-04 19:05 50.80542 -0.95272 37972 ft 458 kts 32°
2026-05-04 19:06 50.86298 -0.91059 37952 ft 458 kts 14°
2026-05-04 19:06 50.89338 -0.90004 38192 ft 453 kts 11°
2026-05-04 19:06 50.92437 -0.88980 38010 ft 457 kts 13°
2026-05-04 19:07 50.98493 -0.85970 37976 ft 457 kts 21°
2026-05-04 19:07 51.04441 -0.82418 37988 ft 457 kts 20°
2026-05-04 19:08 51.10428 -0.79070 38016 ft 457 kts 19°
2026-05-04 19:08 51.16360 -0.75944 38027 ft 457 kts 18°
2026-05-04 19:09 51.22403 -0.72804 38031 ft 456 kts 18°
2026-05-04 19:09 51.28443 -0.69649 38022 ft 456 kts 18°
2026-05-04 19:10 51.34477 -0.66475 38012 ft 457 kts 18°
2026-05-04 19:10 51.40503 -0.63294 38018 ft 457 kts 18°
2026-05-04 19:11 51.46497 -0.60121 38026 ft 456 kts 18°
2026-05-04 19:11 51.52524 -0.56922 38024 ft 456 kts 18°
2026-05-04 19:12 51.61570 -0.52104 38030 ft 456 kts 18°
2026-05-04 19:13 51.67595 -0.48884 38016 ft 457 kts 18°
2026-05-04 19:13 51.73618 -0.45656 38057 ft 456 kts 18°
2026-05-04 19:14 51.79547 -0.42470 38016 ft 457 kts 18°
2026-05-04 19:14 51.85665 -0.39719 38010 ft 456 kts 12°
2026-05-04 19:15 51.91904 -0.37903 38033 ft 455 kts
2026-05-04 19:15 51.98184 -0.36513 38018 ft 456 kts
2026-05-04 19:16 52.04438 -0.34852 38036 ft 455 kts 10°
2026-05-04 19:16 52.10664 -0.32986 38028 ft 455 kts 10°
2026-05-04 19:17 52.16850 -0.31104 38040 ft 455 kts 10°
2026-05-04 19:17 52.23069 -0.29232 38047 ft 455 kts 10°
2026-05-04 19:18 52.29330 -0.27833 37943 ft 455 kts 354°
2026-05-04 19:18 52.32392 -0.28926 38056 ft 448 kts 339°
2026-05-04 19:18 52.35275 -0.30770 38115 ft 446 kts 334°
2026-05-04 19:19 52.40805 -0.35442 38089 ft 449 kts 329°
2026-05-04 19:19 52.46220 -0.40476 38069 ft 450 kts 329°
2026-05-04 19:20 52.51696 -0.45489 38061 ft 450 kts 330°
2026-05-04 19:20 52.57195 -0.50436 38052 ft 450 kts 330°
2026-05-04 19:21 52.62696 -0.55369 38048 ft 450 kts 330°
2026-05-04 19:21 52.68146 -0.60274 38036 ft 449 kts 330°
2026-05-04 19:22 52.73609 -0.65211 38047 ft 446 kts 330°
2026-05-04 19:22 52.79098 -0.69928 38055 ft 444 kts 333°
2026-05-04 19:23 52.84639 -0.74479 38036 ft 445 kts 333°
2026-05-04 19:23 52.90176 -0.79060 38059 ft 445 kts 333°
2026-05-04 19:24 52.95675 -0.83674 38050 ft 447 kts 332°
2026-05-04 19:24 53.01223 -0.88363 37764 ft 451 kts 332°
2026-05-04 19:24 53.04031 -0.90744 37254 ft 450 kts 333°
2026-05-04 19:25 53.06786 -0.93083 36923 ft 443 kts 333°
2026-05-04 19:25 53.09534 -0.95419 36555 ft 437 kts 333°
2026-05-04 19:25 53.12222 -0.97706 35902 ft 438 kts 333°
2026-05-04 19:26 53.17606 -1.02297 35091 ft 450 kts 334°
2026-05-04 19:26 53.20389 -1.04674 34939 ft 454 kts 334°
2026-05-04 19:26 53.23220 -1.07097 34552 ft 450 kts 334°
2026-05-04 19:26 53.26006 -1.09485 33807 ft 454 kts 334°
2026-05-04 19:27 53.28754 -1.11846 33639 ft 441 kts 334°
2026-05-04 19:27 53.31489 -1.14195 33283 ft 433 kts 335°
2026-05-04 19:27 53.34185 -1.16514 32539 ft 438 kts 335°
2026-05-04 19:27 53.36745 -1.18720 32372 ft 432 kts 335°
2026-05-04 19:28 53.39426 -1.21031 32066 ft 428 kts 335°
2026-05-04 19:28 53.42094 -1.23334 31430 ft 432 kts 335°
2026-05-04 19:28 53.44733 -1.25618 31116 ft 429 kts 335°
2026-05-04 19:28 53.47410 -1.27935 30830 ft 435 kts 335°
2026-05-04 19:29 53.50132 -1.30293 30254 ft 457 kts 334°
2026-05-04 19:29 53.52981 -1.32765 29873 ft 467 kts 334°
2026-05-04 19:29 53.55871 -1.35281 29381 ft 464 kts 334°
2026-05-04 19:29 53.58715 -1.37764 28881 ft 458 kts 334°
2026-05-04 19:30 53.61273 -1.40000 28529 ft 450 kts 334°
2026-05-04 19:30 53.64053 -1.42432 28039 ft 448 kts 334°
2026-05-04 19:30 53.66810 -1.44846 27632 ft 445 kts 333°
2026-05-04 19:30 53.69559 -1.47255 27163 ft 446 kts 333°
2026-05-04 19:31 53.72360 -1.49713 26739 ft 463 kts 333°
2026-05-04 19:31 53.75206 -1.52217 26274 ft 469 kts 333°
2026-05-04 19:31 53.78092 -1.54763 25809 ft 467 kts 333°
2026-05-04 19:31 53.80967 -1.57302 25349 ft 464 kts 333°
2026-05-04 19:32 53.83816 -1.59819 24901 ft 461 kts 333°
2026-05-04 19:32 53.86650 -1.62326 24450 ft 459 kts 333°
2026-05-04 19:32 53.89471 -1.64824 24005 ft 456 kts 332°
2026-05-04 19:32 53.92277 -1.67315 23550 ft 454 kts 332°
2026-05-04 19:33 53.95073 -1.69800 23027 ft 452 kts 332°
2026-05-04 19:33 53.97847 -1.72271 22543 ft 449 kts 332°
2026-05-04 19:33 54.00567 -1.74698 22087 ft 445 kts 332°
2026-05-04 19:33 54.03299 -1.77138 21657 ft 441 kts 332°
2026-05-04 19:34 54.06006 -1.79560 21206 ft 438 kts 332°
2026-05-04 19:34 54.08692 -1.81965 20772 ft 435 kts 331°
2026-05-04 19:34 54.11362 -1.84352 20338 ft 432 kts 332°
2026-05-04 19:34 54.14149 -1.86199 19839 ft 430 kts 348°
2026-05-04 19:35 54.17104 -1.86474 19638 ft 426 kts
2026-05-04 19:35 54.20076 -1.86092 19075 ft 429 kts
2026-05-04 19:35 54.22998 -1.85218 18676 ft 425 kts 11°
2026-05-04 19:35 54.25836 -1.84107 18236 ft 423 kts 12°
2026-05-04 19:36 54.28685 -1.82918 17762 ft 420 kts 12°
2026-05-04 19:36 54.31516 -1.81769 17307 ft 417 kts 12°
2026-05-04 19:36 54.34343 -1.80682 16879 ft 414 kts 11°
2026-05-04 19:36 54.37152 -1.79642 16455 ft 413 kts 11°
2026-05-04 19:37 54.39962 -1.78609 15833 ft 413 kts 10°
2026-05-04 19:37 54.42734 -1.77633 15205 ft 401 kts
2026-05-04 19:37 54.45429 -1.76780 14592 ft 387 kts
2026-05-04 19:37 54.48041 -1.75998 13997 ft 375 kts
2026-05-04 19:38 54.50544 -1.75234 13356 ft 366 kts
2026-05-04 19:38 54.53011 -1.74460 12700 ft 357 kts
2026-05-04 19:38 54.55430 -1.73691 12057 ft 349 kts
2026-05-04 19:38 54.57792 -1.72936 11429 ft 342 kts
2026-05-04 19:39 54.60109 -1.72195 10804 ft 336 kts
2026-05-04 19:39 54.62387 -1.71467 10195 ft 330 kts
2026-05-04 19:39 54.64633 -1.70750 9568 ft 325 kts
2026-05-04 19:39 54.66829 -1.70048 9155 ft 313 kts
2026-05-04 19:40 54.68878 -1.69389 9051 ft 297 kts
2026-05-04 19:40 54.70856 -1.68609 9011 ft 287 kts 15°
2026-05-04 19:40 54.72703 -1.67336 9031 ft 286 kts 22°
2026-05-04 19:40 54.74502 -1.65792 9031 ft 290 kts 24°
2026-05-04 19:41 54.76200 -1.64267 8730 ft 296 kts 25°
2026-05-04 19:41 54.78079 -1.62570 8456 ft 294 kts 25°
2026-05-04 19:41 54.79891 -1.60931 8119 ft 293 kts 25°
2026-05-04 19:41 54.81690 -1.59306 7822 ft 291 kts 25°
2026-05-04 19:42 54.83482 -1.57694 7509 ft 289 kts 25°
2026-05-04 19:42 54.85223 -1.56133 7204 ft 282 kts 25°
2026-05-04 19:42 54.86939 -1.54597 6898 ft 274 kts 25°
2026-05-04 19:42 54.88618 -1.53099 6598 ft 267 kts 25°
2026-05-04 19:43 54.90250 -1.51647 6293 ft 261 kts 25°
2026-05-04 19:43 54.91849 -1.50223 5976 ft 255 kts 25°
2026-05-04 19:43 54.93408 -1.48833 5659 ft 250 kts 25°
2026-05-04 19:43 54.94940 -1.47462 5350 ft 245 kts 25°
2026-05-04 19:44 54.96444 -1.46112 5036 ft 240 kts 25°
2026-05-04 19:44 54.97915 -1.44785 4731 ft 236 kts 25°
2026-05-04 19:44 54.99371 -1.43473 4443 ft 235 kts 25°
2026-05-04 19:44 55.00788 -1.42192 4148 ft 230 kts 25°
2026-05-04 19:45 55.02188 -1.40925 3850 ft 224 kts 25°
2026-05-04 19:45 55.03559 -1.39683 3537 ft 220 kts 25°
2026-05-04 19:45 55.04909 -1.38496 3224 ft 215 kts 20°
2026-05-04 19:45 55.06322 -1.37885 2992 ft 202 kts 356°
2026-05-04 19:46 55.07566 -1.38578 3015 ft 180 kts 327°
2026-05-04 19:46 55.08625 -1.39761 2990 ft 181 kts 323°
2026-05-04 19:46 55.09443 -1.41375 2967 ft 178 kts 292°
2026-05-04 19:46 55.09714 -1.43421 3029 ft 175 kts 282°
2026-05-04 19:47 55.09833 -1.45493 2941 ft 169 kts 267°
2026-05-04 19:47 55.09445 -1.47413 2743 ft 166 kts 243°
2026-05-04 19:47 55.08922 -1.49227 2486 ft 170 kts 252°
2026-05-04 19:47 55.08506 -1.51103 2294 ft 164 kts 251°
2026-05-04 19:48 55.08055 -1.52919 2086 ft 160 kts 249°
2026-05-04 19:48 55.07590 -1.54688 1849 ft 158 kts 249°
2026-05-04 19:48 55.07137 -1.56390 1683 ft 152 kts 249°
2026-05-04 19:48 55.06709 -1.57996 1478 ft 143 kts 249°
2026-05-04 19:49 55.06294 -1.59561 1251 ft 141 kts 248°
2026-05-04 19:49 55.05887 -1.61093 1106 ft 139 kts 247°
2026-05-04 19:49 55.05481 -1.62636 886 ft 139 kts 246°
2026-05-04 19:49 55.05073 -1.64137 705 ft 136 kts 246°
2026-05-04 19:50 55.04685 -1.65625 507 ft 135 kts 246°
2026-05-04 19:50 55.04290 -1.67106 319 ft 134 kts 245°
2026-05-04 19:50 55.03908 -1.68579 257 ft 133 kts 246°
2026-05-04 19:50 55.03543 -1.70117 539 ft 148 kts 248°
2026-05-04 19:51 55.03139 -1.71849 998 ft 162 kts 249°
2026-05-04 19:51 55.02653 -1.73827 1450 ft 194 kts 249°
2026-05-04 19:51 55.02336 -1.76264 1692 ft 218 kts 276°
2026-05-04 19:51 55.02965 -1.78611 1828 ft 213 kts 319°
2026-05-04 19:52 55.04230 -1.79902 2204 ft 213 kts 333°
2026-05-04 19:52 55.05674 -1.80567 2448 ft 220 kts
2026-05-04 19:52 55.07066 -1.79524 2762 ft 226 kts 42°
2026-05-04 19:52 55.07825 -1.77110 3038 ft 234 kts 71°
2026-05-04 19:53 55.08279 -1.74374 2994 ft 236 kts 72°
2026-05-04 19:53 55.08751 -1.71646 2986 ft 233 kts 70°
2026-05-04 19:53 55.09245 -1.68956 2998 ft 233 kts 70°
2026-05-04 19:53 55.09746 -1.66264 3002 ft 234 kts 70°
2026-05-04 19:54 55.10249 -1.63568 2999 ft 234 kts 70°
2026-05-04 19:54 55.10755 -1.60858 2990 ft 233 kts 70°
2026-05-04 19:54 55.11244 -1.58234 2973 ft 219 kts 70°
2026-05-04 19:54 55.11690 -1.55814 2975 ft 199 kts 70°
2026-05-04 19:55 55.12100 -1.53564 2981 ft 195 kts 70°
2026-05-04 19:55 55.12506 -1.51334 2984 ft 195 kts 70°
2026-05-04 19:55 55.12911 -1.49100 2986 ft 191 kts 70°
2026-05-04 19:55 55.13153 -1.46820 2963 ft 192 kts 91°
2026-05-04 19:56 55.12642 -1.44678 2823 ft 199 kts 137°
2026-05-04 19:56 55.11439 -1.43613 2772 ft 195 kts 174°
2026-05-04 19:56 55.10165 -1.44175 2482 ft 195 kts 226°
2026-05-04 19:56 55.09519 -1.46243 2118 ft 193 kts 256°
2026-05-04 19:57 55.09139 -1.48416 2007 ft 180 kts 256°
2026-05-04 19:57 55.08726 -1.50391 1883 ft 171 kts 249°
2026-05-04 19:57 55.08243 -1.52219 1751 ft 159 kts 251°
2026-05-04 19:57 55.07777 -1.53977 1677 ft 158 kts 246°
2026-05-04 19:58 55.07313 -1.55641 1568 ft 148 kts 250°
2026-05-04 19:58 55.06901 -1.57231 1390 ft 141 kts 249°
2026-05-04 19:58 55.06489 -1.58770 1205 ft 139 kts 250°
2026-05-04 19:58 55.06097 -1.60306 1057 ft 139 kts 248°
2026-05-04 19:59 55.05699 -1.61806 902 ft 138 kts 246°
2026-05-04 19:59 55.05286 -1.63315 753 ft 138 kts 245°
2026-05-04 19:59 55.04887 -1.64848 587 ft 138 kts 245°
2026-05-04 19:59 55.04488 -1.66360 389 ft 136 kts 245°
2026-05-04 20:00 55.04099 -1.67834 262 ft 133 kts 245°
2026-05-04 20:00 55.03717 -1.69251 254 ft 116 kts 243°
2026-05-04 20:00 55.03588 -1.70031 261 ft 31 kts 275°
2026-05-04 20:00 55.03595 -1.70240 264 ft 13 kts 273°
2026-05-04 20:01 55.03605 -1.70389 266 ft 12 kts 290°
2026-05-04 20:01 55.03677 -1.70438 266 ft 12 kts
2026-05-04 20:01 55.03758 -1.70426 266 ft 12 kts 357°
2026-05-04 20:01 55.03799 -1.70532 266 ft 11 kts 276°
2026-05-04 20:02 55.03806 -1.70668 266 ft 11 kts 274°
2026-05-04 20:02 55.03811 -1.70797 266 ft 6 kts 272°
2026-05-04 20:02 55.03776 -1.70833 266 ft 7 kts 185°
2026-05-04 20:02 55.03747 -1.70837 266 ft 0 kts 185°